{"data":{"norad_id":67384,"intl_designator":"2026-004X","name":"CAPELLA-19 (ACADIA-9)","alt_names":[],"object_type":"PAYLOAD","status":"ACTIVE","operator":null,"country":"US","launch_date":"2026-01-11","launch_site_code":"AFWTR","launch_vehicle":null,"mission":null,"orbit_class":"UNKNOWN","rcs_meters":null,"size_class":null,"mass_kg":null,"dimensions":null,"purposes":[],"wikipedia_slug":null,"has_3d_model":false,"image_url":null,"decayed_at":null,"tle_current":{"epoch":"2026-05-24T23:28:17.769216Z","epoch_age_seconds":70794,"freshness":"FRESH","line1":"1 67384U 26004X   26144.97798344  .00003768  00000+0  43027-3 0  9990","line2":"2 67384  97.7998 143.7791 0001404  92.3457 267.7920 14.86660901 19824","mean_motion":14.86660901,"eccentricity":0.0001404,"inclination_deg":97.7998,"raan_deg":143.7791,"arg_perigee_deg":92.3457,"mean_anomaly_deg":267.792,"bstar":0.00043027,"rev_number":1982,"period_min":96.861362199772,"perigee_km":607.3965418063,"apogee_km":609.35835506342,"semimajor_km":6986.5144484349,"source":"CELESTRAK","updated_at":"2026-05-25T13:38:06.932694Z"}}}